• In France
  • List of Countries
  • For 7 days
  • Water Temperature
  • Satellite Maps
  • Weather Map
  • Weather Widgets
  • user-avatar
    Login

    Hourly Weather Galata

    Today, 17 January, Wednesday

    Time Temperature Precipitation Wind Pressure Humidity
    00:00 0°C° 0 mm 4 mps 751 mmHg 94%
    01:00 0°C° 0 mm 5 mps 751 mmHg 94%
    02:00 +1°C° 0 mm 5 mps 750 mmHg 94%
    03:00 +1°C° 0 mm 5 mps 750 mmHg 93%
    04:00 0°C° 0 mm 5 mps 749 mmHg 92%
    05:00 0°C° 0 mm 5 mps 749 mmHg 91%
    06:00 0°C° 0 mm 4 mps 749 mmHg 89%
    07:00 0°C° 0 mm 4 mps 748 mmHg 88%
    08:00 0°C° 0 mm 4 mps 748 mmHg 87%
    09:00 +2°C° 0 mm 5 mps 748 mmHg 87%
    10:00 +3°C° 0 mm 5 mps 747 mmHg 87%
    11:00 +5°C° 0 mm 5 mps 747 mmHg 87%
    12:00 +6°C° 0 mm 5 mps 746 mmHg 85%
    13:00 +5°C° 0 mm 6 mps 744 mmHg 84%
    14:00 +7°C° 0 mm 6 mps 743 mmHg 82%
    15:00 +6°C° 0 mm 7 mps 742 mmHg 83%
    16:00 +6°C° 0 mm 7 mps 741 mmHg 83%
    17:00 +6°C° 0 mm 8 mps 740 mmHg 83%
    18:00 +6°C° 0.3 mm 9 mps 739 mmHg 84%
    19:00 +7°C° 0.3 mm 9 mps 738 mmHg 85%
    20:00 +7°C° 0.3 mm 10 mps 737 mmHg 86%
    21:00 +7°C° 0.8 mm 10 mps 737 mmHg 86%
    22:00 +7°C° 0.8 mm 9 mps 736 mmHg 87%
    23:00 +7°C° 0.8 mm 9 mps 735 mmHg 87%

    Tomorrow, 18 January, Thursday

    Time Temperature Precipitation Wind Pressure Humidity
    00:00 +6°C° 0.3 mm 10 mps 736 mmHg 85%
    01:00 +3°C° 0.3 mm 11 mps 736 mmHg 83%
    02:00 +2°C° 0.3 mm 11 mps 736 mmHg 81%
    03:00 0°C° 0.1 mm 12 mps 737 mmHg 80%
    04:00 0°C° 0.1 mm 12 mps 737 mmHg 79%
    05:00 -1°C° 0.1 mm 12 mps 738 mmHg 78%
    06:00 -1°C° 0.2 mm 12 mps 739 mmHg 78%
    07:00 -1°C° 0.2 mm 12 mps 740 mmHg 79%
    08:00 -2°C° 0.2 mm 12 mps 741 mmHg 79%
    09:00 -2°C° 0.1 mm 12 mps 742 mmHg 77%
    10:00 -2°C° 0.1 mm 12 mps 743 mmHg 74%
    11:00 -1°C° 0.1 mm 13 mps 744 mmHg 72%
    12:00 -1°C° 0 mm 12 mps 745 mmHg 69%
    13:00 0°C° 0 mm 12 mps 746 mmHg 66%
    14:00 +1°C° 0 mm 11 mps 746 mmHg 63%
    15:00 +1°C° 0 mm 11 mps 747 mmHg 63%
    16:00 +1°C° 0 mm 11 mps 748 mmHg 64%
    17:00 +1°C° 0 mm 10 mps 749 mmHg 65%
    18:00 0°C° 0 mm 10 mps 750 mmHg 66%
    19:00 0°C° 0 mm 10 mps 751 mmHg 67%
    20:00 -2°C° 0 mm 10 mps 751 mmHg 68%
    21:00 -2°C° 0 mm 10 mps 752 mmHg 69%
    22:00 -3°C° 0 mm 9 mps 752 mmHg 71%
    23:00 -3°C° 0 mm 9 mps 753 mmHg 72%

    Day after tomorrow, 19 January, Friday

    Time Temperature Precipitation Wind Pressure Humidity
    00:00 -2°C° 0 mm 8 mps 753 mmHg 74%
    01:00 -2°C° 0 mm 7 mps 753 mmHg 75%
    02:00 -2°C° 0 mm 5 mps 753 mmHg 77%
    03:00 -2°C° 0 mm 5 mps 753 mmHg 76%
    04:00 -2°C° 0 mm 5 mps 753 mmHg 75%
    05:00 -2°C° 0 mm 5 mps 752 mmHg 74%
    06:00 -2°C° 0 mm 6 mps 752 mmHg 71%
    07:00 -2°C° 0 mm 6 mps 752 mmHg 68%
    08:00 -1°C° 0 mm 7 mps 753 mmHg 64%
    09:00 0°C° 0 mm 7 mps 752 mmHg 59%
    10:00 +3°C° 0 mm 7 mps 752 mmHg 54%
    11:00 +5°C° 0 mm 7 mps 752 mmHg 49%
    12:00 +6°C° 0 mm 7 mps 752 mmHg 48%
    13:00 +8°C° 0 mm 7 mps 752 mmHg 48%
    14:00 +9°C° 0 mm 7 mps 752 mmHg 47%
    15:00 +7°C° 0 mm 6 mps 752 mmHg 51%
    16:00 +5°C° 0 mm 6 mps 752 mmHg 56%
    17:00 +5°C° 0 mm 5 mps 752 mmHg 60%
    18:00 +5°C° 0 mm 5 mps 752 mmHg 60%
    19:00 +3°C° 0 mm 5 mps 752 mmHg 60%
    20:00 +3°C° 0 mm 5 mps 752 mmHg 60%
    21:00 +4°C° 0 mm 4 mps 752 mmHg 60%
    22:00 +4°C° 0 mm 4 mps 752 mmHg 60%
    23:00 +4°C° 0 mm 3 mps 752 mmHg 60%

    20 January, Saturday

    Time Temperature Precipitation Wind Pressure Humidity
    00:00 +3°C° 0 mm 3 mps 752 mmHg 61%
    01:00 +3°C° 0 mm 3 mps 752 mmHg 62%
    02:00 +3°C° 0 mm 3 mps 752 mmHg 62%
    03:00 +3°C° 0 mm 3 mps 752 mmHg 66%
    04:00 +3°C° 0 mm 3 mps 752 mmHg 69%
    05:00 +1°C° 0 mm 4 mps 752 mmHg 72%
    06:00 +3°C° 0 mm 4 mps 751 mmHg 77%
    07:00 +2°C° 0 mm 5 mps 751 mmHg 83%
    08:00 +2°C° 0 mm 5 mps 751 mmHg 88%
    09:00 +4°C° 0 mm 6 mps 751 mmHg 85%
    10:00 +6°C° 0 mm 7 mps 750 mmHg 81%
    11:00 +8°C° 0 mm 7 mps 750 mmHg 78%
    12:00 +9°C° 0 mm 8 mps 749 mmHg 76%
    13:00 +10°C° 0 mm 8 mps 749 mmHg 74%
    14:00 +11°C° 0 mm 9 mps 748 mmHg 72%
    15:00 +11°C° 0 mm 8 mps 748 mmHg 74%
    16:00 +10°C° 0 mm 8 mps 747 mmHg 76%
    17:00 +10°C° 0 mm 8 mps 747 mmHg 78%
    18:00 +10°C° 0 mm 8 mps 747 mmHg 79%
    19:00 +10°C° 0 mm 8 mps 747 mmHg 79%
    20:00 +9°C° 0 mm 8 mps 747 mmHg 80%
    21:00 +9°C° 0.1 mm 8 mps 747 mmHg 82%
    22:00 +8°C° 0.1 mm 9 mps 746 mmHg 84%
    23:00 +8°C° 0.1 mm 9 mps 746 mmHg 85%

    21 January, Sunday

    Time Temperature Precipitation Wind Pressure Humidity
    00:00 +8°C° 0.3 mm 9 mps 746 mmHg 86%
    01:00 +8°C° 0.3 mm 9 mps 745 mmHg 86%
    02:00 +8°C° 0.3 mm 9 mps 745 mmHg 86%
    03:00 +6°C° 0.5 mm 8 mps 746 mmHg 86%
    04:00 +4°C° 0.5 mm 8 mps 746 mmHg 86%
    05:00 +3°C° 0.5 mm 7 mps 746 mmHg 85%
    06:00 +1°C° 0 mm 8 mps 747 mmHg 83%
    07:00 +1°C° 0 mm 8 mps 748 mmHg 80%
    08:00 +1°C° 0 mm 8 mps 749 mmHg 78%
    09:00 +1°C° 0 mm 8 mps 750 mmHg 76%
    10:00 +1°C° 0 mm 8 mps 751 mmHg 74%
    11:00 +2°C° 0 mm 7 mps 752 mmHg 72%
    12:00 +2°C° 0 mm 7 mps 752 mmHg 71%
    13:00 +2°C° 0 mm 6 mps 752 mmHg 70%
    14:00 +3°C° 0 mm 6 mps 752 mmHg 69%
    15:00 +2°C° 0 mm 5 mps 752 mmHg 71%
    16:00 +2°C° 0 mm 5 mps 753 mmHg 73%
    17:00 +1°C° 0 mm 4 mps 753 mmHg 75%
    18:00 +1°C° 0 mm 5 mps 754 mmHg 76%
    19:00 +1°C° 0 mm 5 mps 754 mmHg 78%
    20:00 0°C° 0 mm 5 mps 754 mmHg 79%
    21:00 -1°C° 0 mm 6 mps 754 mmHg 79%
    22:00 -1°C° 0 mm 6 mps 754 mmHg 79%
    23:00 -1°C° 0 mm 7 mps 754 mmHg 79%

    22 January, Monday

    Time Temperature Precipitation Wind Pressure Humidity
    00:00 -2°C° 0 mm 7 mps 754 mmHg 77%
    01:00 -2°C° 0 mm 7 mps 754 mmHg 76%
    02:00 -2°C° 0 mm 8 mps 754 mmHg 75%
    03:00 -2°C° 0 mm 8 mps 754 mmHg 74%
    04:00 -2°C° 0 mm 8 mps 754 mmHg 73%
    05:00 -4°C° 0 mm 9 mps 755 mmHg 72%
    06:00 -4°C° 0 mm 9 mps 755 mmHg 70%
    07:00 -4°C° 0 mm 9 mps 755 mmHg 69%
    08:00 -4°C° 0 mm 9 mps 756 mmHg 68%
    09:00 -4°C° 0 mm 9 mps 756 mmHg 65%
    10:00 -3°C° 0 mm 9 mps 756 mmHg 62%
    11:00 -3°C° 0 mm 9 mps 756 mmHg 59%
    12:00 -3°C° 0 mm 9 mps 756 mmHg 60%
    13:00 -1°C° 0 mm 9 mps 756 mmHg 60%
    14:00 -1°C° 0 mm 9 mps 757 mmHg 60%
    15:00 -1°C° 0 mm 9 mps 757 mmHg 63%
    16:00 -3°C° 0 mm 9 mps 757 mmHg 66%
    17:00 -2°C° 0 mm 8 mps 758 mmHg 70%
    18:00 -4°C° 0 mm 8 mps 758 mmHg 73%
    19:00 -4°C° 0 mm 8 mps 758 mmHg 76%
    20:00 -5°C° 0 mm 8 mps 759 mmHg 79%
    21:00 -5°C° 0 mm 8 mps 759 mmHg 80%
    22:00 -5°C° 0 mm 8 mps 759 mmHg 80%
    23:00 -5°C° 0 mm 8 mps 759 mmHg 80%
    Show more